Charlottetown, Prince Edward Island

8:03 PM AST on January 22, 2017 (GMT -0400)
Charlottetown

Weather History for CYYG - October, 2012

Change the Weather History Date:

Thursday, October 4, 2012

  Actual Average Record
Temperature  
Mean Temperature 53 °F -  
Max Temperature 59 °F 53 °F 75 °F (2001)
Min Temperature 47 °F 38 °F 33 °F (1997)
Degree Days  
Heating Degree Days 12    
Growing Degree Days 3 (Base 50)    
Moisture  
Dew Point 51 °F    
Average Humidity 89    
Maximum Humidity 100    
Minimum Humidity 70    
Precipitation  
Precipitation 0.00 in 0.15 in - ()
Sea Level Pressure  
Sea Level Pressure 30.17 in    
Wind  
Wind Speed 6 mph ()    
Max Wind Speed 14 mph    
Max Gust Speed -    
Visibility 14.8 miles    
Events Rain    
Averages and records for this station are not official NWS values.
T = Trace of Precipitation, MM = Missing Value Source: Averaged Metar Reports

Daily Weather History Graph

Daily Weather History Graph

Search for Another Location

Airport or City:

Trip Planner

Search our weather history database for the weather conditions in past years. The results will help you decide how hot, cold, wet, or windy it might be!

Date:

Astronomy

Oct. 04, 2012 Rise Set
Actual Time 7:15 AM ADT 6:45 PM ADT
Civil Twilight 6:45 AM ADT 7:15 PM ADT
Nautical Twilight 6:10 AM ADT 7:50 PM ADT
Astronomical Twilight 5:35 AM ADT 8:25 PM ADT
Moon 9:02 PM ADT (10/4) 11:44 AM ADT (10/4)
Length of Visible Light 12h 30m
Length of Day
11h 30m
Waning Gibbous, 82% of the Moon is Illuminated
Oct 4
Waning Gibbous
Oct 8
Last Quarter
Oct 15
New
Oct 22
First Quarter
Oct 29
Full

Hourly Weather History & Observations

Time (ADT) Temp. Dew Point Humidity Pressure Visibility Wind Dir Wind Speed Gust Speed Precip Events Conditions
12:00 AM 51.8 °F 48.2 °F 88% 30.17 in 15.0 mi North 6.9 mph - N/A   Clear
1:00 AM 51.8 °F 48.2 °F 88% 30.17 in 15.0 mi North 6.9 mph - N/A   Clear
2:00 AM 51.8 °F 48.2 °F 88% 30.18 in 15.0 mi NNW 6.9 mph - N/A   Clear
3:00 AM 50 °F 48 °F 89% 30.18 in 15 mi NW 4.6 mph - -  
3:00 AM 50.0 °F 48.2 °F 94% 30.18 in 15.0 mi NW 4.6 mph - N/A   Clear
4:00 AM 50.0 °F 48.2 °F 94% 30.18 in 15.0 mi NNW 5.8 mph - N/A   Clear
5:00 AM 50.0 °F 48.2 °F 94% 30.18 in 15.0 mi NNW 5.8 mph - N/A   Clear
6:00 AM 50.0 °F 50.0 °F 100% 30.19 in 15.0 mi WNW 4.6 mph - N/A   Clear
7:00 AM 50.0 °F 50.0 °F 100% 30.20 in 15.0 mi WNW 4.6 mph - N/A   Partly Cloudy
8:00 AM 48.2 °F 48.2 °F 100% 30.22 in 15.0 mi NNW 4.6 mph - N/A   Scattered Clouds
9:00 AM 56 °F 53 °F 86% 30.22 in 15 mi North 5.8 mph - -   Scattered Clouds
9:00 AM 55.4 °F 53.6 °F 94% 30.22 in 15.0 mi North 6.9 mph - N/A   Scattered Clouds
10:00 AM 57.2 °F 51.8 °F 82% 30.21 in 15.0 mi North 13.8 mph - N/A   Mostly Cloudy
11:00 AM 59.0 °F 51.8 °F 77% 30.22 in 15.0 mi NNE 12.7 mph - N/A   Mostly Cloudy
12:00 PM 57.2 °F 51.8 °F 82% 30.22 in 15.0 mi NNE 11.5 mph - N/A   Mostly Cloudy
1:00 PM 57.2 °F 50.0 °F 77% 30.21 in 15.0 mi NNE 10.4 mph - N/A   Mostly Cloudy
2:00 PM 57.2 °F 50.0 °F 77% 30.21 in 15.0 mi North 6.9 mph - N/A   Overcast
3:00 PM 57 °F 50 °F 70% 30.18 in 15 mi NNE 9.2 mph - -   Overcast
3:00 PM 57.2 °F 50.0 °F 77% 30.18 in 15.0 mi NNE 9.2 mph - N/A   Overcast
4:00 PM 57.2 °F 50.0 °F 77% 30.17 in 15.0 mi North 6.9 mph - N/A   Mostly Cloudy
5:00 PM 55.4 °F 51.8 °F 88% 30.15 in 15.0 mi North 9.2 mph - N/A   Mostly Cloudy
6:00 PM 55.4 °F 50.0 °F 82% 30.14 in 15.0 mi NNE 9.2 mph - N/A   Overcast
6:40 PM 53.6 °F 51.8 °F 94% 30.14 in 15.0 mi NE 8.1 mph - N/A Rain Light Rain Showers
7:00 PM 53.6 °F 51.8 °F 94% 30.13 in 12.0 mi NNE 5.8 mph - N/A Rain Light Rain Showers
8:00 PM 53.6 °F 51.8 °F 94% 30.13 in 15.0 mi Calm Calm - N/A   Overcast
9:00 PM 53 °F 52 °F 97% 30.12 in 15 mi NNE 3.5 mph - -   Partly Cloudy
9:00 PM 53.6 °F 51.8 °F 94% 30.12 in 15.0 mi NE 3.5 mph - N/A   Overcast
9:18 PM 53.6 °F 53.6 °F 100% 30.12 in 12.0 mi NNE 4.6 mph - N/A   Light Drizzle
9:48 PM 53.6 °F 51.8 °F 94% 30.13 in 15.0 mi WNW 2.3 mph - N/A   Light Drizzle
10:00 PM 53.6 °F 51.8 °F 94% 30.13 in 15.0 mi WNW 2.3 mph - N/A   Light Drizzle
10:47 PM 53.6 °F 51.8 °F 94% 30.10 in 15.0 mi Variable 2.3 mph - N/A   Overcast
11:00 PM 51.8 °F 51.8 °F 100% 30.10 in 15.0 mi South 3.5 mph - N/A   Overcast